Torna al catalogo

CZ-4C DEB

AttivoSSO
NORAD 37570·DEBRIS·🇨🇳 China

Lanciato Aug 9, 2010 da Taiyuan Satellite Launch Center

Loading…

Prossimi Passaggi (prossime 24 ore)

TLE

AggiornatoSource: Space-Track

Epoca: Sep 14, 2026, 03:19 UTC

1 37570U 10038F   26257.13844605  .00003157  00000-0  40752-3 0  9994
2 37570  97.8257 323.8125 0115995 294.3566  64.5571 14.77062743851396

Traccia CZ-4C DEB in tempo reale con AllMySat

Download on the App Store